Torna al catalogo

CZ-6A DEB

AttivoPO
NORAD 64635·DEBRIS·🇨🇳 China

Lanciato Aug 6, 2024 da Taiyuan Satellite Launch Center

Loading…

Prossimi Passaggi (prossime 24 ore)

TLE

AggiornatoSource: Space-Track

Epoca: Sep 14, 2026, 07:56 UTC

1 64635U 24140ADZ 26257.33090208  .00003390  00000-0  62492-3 0  9993
2 64635  89.1112 270.2306 0095705 301.8354  57.3568 14.62386865105906

Traccia CZ-6A DEB in tempo reale con AllMySat

Download on the App Store